Time,TemperatureF,DewpointF,PressureIn,WindDirection,WindDirectionDegrees,WindSpeedMPH,WindSpeedGustMPH,Humidity,HourlyPrecipIn,Conditions,Clouds,dailyrainin,SoftwareType,DateUTC
2013-03-16 00:02:00,33.0,26.0,29.95,WNW,302,0.0,0.0,74,0.00,,,-99.99,,2013-03-16 06:02:00,
2013-03-16 00:21:00,32.0,25.0,29.95,WNW,302,0.0,0.0,74,0.00,,,-99.99,,2013-03-16 06:21:00,
2013-03-16 00:32:00,32.0,26.0,29.95,WNW,302,0.0,3.0,77,0.00,,,-99.99,,2013-03-16 06:32:00,
2013-03-16 00:41:00,32.0,26.0,29.95,WNW,302,0.0,3.0,77,0.00,,,-99.99,,2013-03-16 06:41:00,
2013-03-16 00:51:00,31.0,25.0,29.95,WNW,302,0.0,3.0,79,0.00,,,-99.99,,2013-03-16 06:51:00,
2013-03-16 01:01:00,31.0,25.0,29.96,WNW,302,0.0,0.0,79,0.00,,,-99.99,,2013-03-16 07:01:00,
2013-03-16 01:22:00,30.0,25.0,29.96,WNW,302,0.0,0.0,80,0.00,,,-99.99,,2013-03-16 07:22:00,
2013-03-16 01:32:00,29.0,24.0,29.96,WNW,302,0.0,2.0,80,0.00,,,-99.99,,2013-03-16 07:32:00,
2013-03-16 01:52:00,29.0,24.0,29.96,WNW,302,0.0,0.0,81,0.00,,,-99.99,,2013-03-16 07:52:00,
2013-03-16 02:01:00,29.0,24.0,29.95,WNW,302,0.0,2.0,82,0.00,,,-99.99,,2013-03-16 08:01:00,
2013-03-16 02:22:00,28.0,23.0,29.95,WNW,302,0.0,0.0,82,0.00,,,-99.99,,2013-03-16 08:22:00,
2013-03-16 02:32:00,28.0,24.0,29.95,WNW,302,0.0,0.0,84,0.00,,,-99.99,,2013-03-16 08:32:00,
2013-03-16 02:51:00,27.0,23.0,29.95,WNW,302,0.0,0.0,84,0.00,,,-99.99,,2013-03-16 08:51:00,
2013-03-16 03:01:00,27.0,23.0,29.94,WNW,302,0.0,0.0,86,0.00,,,-99.99,,2013-03-16 09:01:00,
2013-03-16 03:21:00,26.0,22.0,29.94,WNW,302,0.0,0.0,85,0.00,,,-99.99,,2013-03-16 09:21:00,
2013-03-16 03:32:00,26.0,22.0,29.93,WNW,302,0.0,2.0,86,0.00,,,-99.99,,2013-03-16 09:32:00,
2013-03-16 03:52:00,26.0,23.0,29.93,WNW,302,0.0,0.0,87,0.00,,,-99.99,,2013-03-16 09:52:00,
2013-03-16 04:03:00,26.0,23.0,29.93,WNW,302,0.0,0.0,88,0.00,,,-99.99,,2013-03-16 10:03:00,
2013-03-16 04:22:00,26.0,23.0,29.92,WNW,302,0.0,0.0,87,0.00,,,-99.99,,2013-03-16 10:22:00,
2013-03-16 04:32:00,26.0,23.0,29.92,WNW,302,0.0,0.0,88,0.00,,,-99.99,,2013-03-16 10:32:00,
2013-03-16 04:52:00,25.0,22.0,29.92,WNW,302,0.0,0.0,89,0.00,,,-99.99,,2013-03-16 10:52:00,
2013-03-16 05:02:00,25.0,22.0,29.92,WNW,302,0.0,0.0,88,0.00,,,-99.99,,2013-03-16 11:02:00,
2013-03-16 05:21:00,25.0,22.0,29.92,WNW,302,0.0,0.0,89,0.00,,,-99.99,,2013-03-16 11:21:00,
2013-03-16 05:32:00,25.0,22.0,29.92,WNW,302,0.0,0.0,90,0.00,,,-99.99,,2013-03-16 11:32:00,
2013-03-16 05:52:00,25.0,22.0,29.92,WNW,302,0.0,0.0,90,0.00,,,-99.99,,2013-03-16 11:52:00,
2013-03-16 06:01:00,25.0,22.0,29.91,WNW,302,0.0,0.0,89,0.00,,,-99.99,,2013-03-16 12:01:00,
2013-03-16 06:22:00,25.0,22.0,29.91,WNW,302,0.0,0.0,90,0.00,,,-99.99,,2013-03-16 12:22:00,
2013-03-16 06:32:00,25.0,22.0,29.91,WNW,302,0.0,0.0,90,0.00,,,-99.99,,2013-03-16 12:32:00,
2013-03-16 06:52:00,25.0,22.0,29.91,WNW,302,0.0,0.0,89,0.00,,,-99.99,,2013-03-16 12:52:00,
2013-03-16 07:02:00,25.0,22.0,29.91,WNW,302,0.0,0.0,89,0.00,,,-99.99,,2013-03-16 13:02:00,
2013-03-16 07:22:00,24.0,21.0,29.91,WNW,302,0.0,0.0,89,0.00,,,-99.99,,2013-03-16 13:22:00,
2013-03-16 07:31:00,24.0,22.0,29.90,WNW,302,0.0,0.0,90,0.00,,,-99.99,,2013-03-16 13:31:00,
2013-03-16 07:53:00,24.0,22.0,29.90,WNW,302,0.0,0.0,90,0.00,,,-99.99,,2013-03-16 13:53:00,
2013-03-16 08:01:00,24.0,22.0,29.91,WNW,302,0.0,0.0,91,0.00,,,-99.99,,2013-03-16 14:01:00,
2013-03-16 08:22:00,25.0,23.0,29.91,WNW,302,0.0,0.0,92,0.00,,,-99.99,,2013-03-16 14:22:00,
2013-03-16 08:31:00,27.0,24.0,29.90,ESE,121,0.0,2.0,90,0.00,,,-99.99,,2013-03-16 14:31:00,
2013-03-16 08:51:00,28.0,25.0,29.90,ESE,121,0.0,1.0,88,0.00,,,-99.99,,2013-03-16 14:51:00,
2013-03-16 09:02:00,29.0,25.0,29.89,ESE,121,0.0,0.0,86,0.00,,,-99.99,,2013-03-16 15:02:00,
2013-03-16 09:22:00,31.0,25.0,29.89,ESE,121,0.0,1.0,79,0.00,,,-99.99,,2013-03-16 15:22:00,
2013-03-16 09:32:00,32.0,25.0,29.89,ESE,121,0.0,0.0,75,0.00,,,-99.99,,2013-03-16 15:32:00,
2013-03-16 09:42:00,32.0,25.0,29.89,ESE,121,0.0,0.0,75,0.00,,,-99.99,,2013-03-16 15:42:00,
2013-03-16 09:53:00,34.0,26.0,29.89,ESE,121,0.0,0.0,71,0.00,,,-99.99,,2013-03-16 15:53:00,
2013-03-16 10:02:00,36.0,26.0,29.88,ESE,121,0.0,1.0,68,0.00,,,-99.99,,2013-03-16 16:02:00,
2013-03-16 10:12:00,36.0,26.0,29.88,ESE,121,0.0,1.0,68,0.00,,,-99.99,,2013-03-16 16:12:00,
2013-03-16 10:22:00,37.0,26.0,29.88,ESE,121,0.0,1.0,63,0.00,,,-99.99,,2013-03-16 16:22:00,
2013-03-16 10:33:00,38.0,27.0,29.88,ESE,121,0.0,2.0,63,0.00,,,-99.99,,2013-03-16 16:33:00,
2013-03-16 10:42:00,38.0,27.0,29.88,ESE,121,0.0,2.0,63,0.00,,,-99.99,,2013-03-16 16:42:00,
2013-03-16 10:52:00,40.0,26.0,29.88,ESE,121,0.0,1.0,58,0.00,,,-99.99,,2013-03-16 16:52:00,
2013-03-16 11:02:00,40.0,25.0,29.88,ESE,121,1.0,4.0,54,0.00,,,-99.99,,2013-03-16 17:02:00,
2013-03-16 11:12:00,40.0,25.0,29.88,ESE,121,1.0,4.0,54,0.00,,,-99.99,,2013-03-16 17:12:00,
2013-03-16 11:22:00,41.0,25.0,29.87,ESE,121,0.0,2.0,53,0.00,,,-99.99,,2013-03-16 17:22:00,
2013-03-16 11:32:00,42.0,26.0,29.86,ESE,121,0.0,2.0,53,0.00,,,-99.99,,2013-03-16 17:32:00,
2013-03-16 11:42:00,42.0,26.0,29.86,ESE,121,0.0,2.0,53,0.00,,,-99.99,,2013-03-16 17:42:00,
2013-03-16 11:52:00,46.0,26.0,29.86,NNE,33,0.0,4.0,46,0.00,,,-99.99,,2013-03-16 17:52:00,
2013-03-16 12:02:00,48.0,28.0,29.85,SSE,148,4.0,4.0,46,0.00,,,-99.99,,2013-03-16 18:02:00,
2013-03-16 12:12:00,48.0,28.0,29.85,SSE,148,4.0,4.0,46,0.00,,,-99.99,,2013-03-16 18:12:00,
2013-03-16 12:22:00,50.0,27.0,29.85,East,94,0.0,4.0,41,0.00,,,-99.99,,2013-03-16 18:22:00,
2013-03-16 12:32:00,51.0,27.0,29.84,East,94,0.0,2.0,39,0.00,,,-99.99,,2013-03-16 18:32:00,
2013-03-16 12:42:00,51.0,27.0,29.84,East,94,0.0,2.0,39,0.00,,,-99.99,,2013-03-16 18:42:00,
2013-03-16 12:51:00,51.0,27.0,29.84,East,94,0.0,2.0,39,0.00,,,-99.99,,2013-03-16 18:51:00,
2013-03-16 13:01:00,54.0,27.0,29.83,South,175,0.0,2.0,35,0.00,,,-99.99,,2013-03-16 19:01:00,
2013-03-16 13:11:00,54.0,27.0,29.83,South,175,0.0,2.0,35,0.00,,,-99.99,,2013-03-16 19:11:00,
2013-03-16 13:21:00,55.0,26.0,29.82,ESE,104,0.0,4.0,33,0.00,,,-99.99,,2013-03-16 19:21:00,
2013-03-16 13:32:00,57.0,27.0,29.81,East,79,1.0,4.0,31,0.00,,,-99.99,,2013-03-16 19:32:00,
2013-03-16 13:42:00,57.0,27.0,29.81,East,79,1.0,4.0,31,0.00,,,-99.99,,2013-03-16 19:42:00,
2013-03-16 13:52:00,58.0,25.0,29.80,WSW,250,4.0,4.0,28,0.00,,,-99.99,,2013-03-16 19:52:00,
2013-03-16 14:02:00,59.0,27.0,29.79,SSW,209,4.0,10.0,29,0.00,,,-99.99,,2013-03-16 20:02:00,
2013-03-16 14:11:00,59.0,27.0,29.79,SSW,209,4.0,10.0,29,0.00,,,-99.99,,2013-03-16 20:11:00,
2013-03-16 14:21:00,59.0,28.0,29.77,SSE,148,2.0,15.0,30,0.00,,,-99.99,,2013-03-16 20:21:00,
2013-03-16 14:31:00,57.0,28.0,29.77,WSW,258,7.0,11.0,33,0.00,,,-99.99,,2013-03-16 20:31:00,
2013-03-16 14:42:00,57.0,28.0,29.77,WSW,258,7.0,11.0,33,0.00,,,-99.99,,2013-03-16 20:42:00,
2013-03-16 14:51:00,58.0,27.0,29.76,SW,236,2.0,11.0,30,0.00,,,-99.99,,2013-03-16 20:51:00,
2013-03-16 15:01:00,58.0,26.0,29.75,WSW,242,7.0,16.0,29,0.00,,,-99.99,,2013-03-16 21:01:00,
2013-03-16 15:11:00,58.0,26.0,29.75,WSW,242,7.0,16.0,29,0.00,,,-99.99,,2013-03-16 21:11:00,
2013-03-16 15:22:00,57.0,27.0,29.74,South,176,10.0,12.0,31,0.00,,,-99.99,,2013-03-16 21:22:00,
2013-03-16 15:32:00,56.0,27.0,29.74,WSW,247,8.0,12.0,33,0.00,,,-99.99,,2013-03-16 21:32:00,
2013-03-16 15:42:00,56.0,27.0,29.74,WSW,247,8.0,12.0,33,0.00,,,-99.99,,2013-03-16 21:42:00,
2013-03-16 15:52:00,56.0,27.0,29.75,West,273,9.0,13.0,33,0.00,,,-99.99,,2013-03-16 21:52:00,
2013-03-16 16:02:00,51.0,31.0,29.77,NNW,330,7.0,20.0,46,0.00,,,-99.99,,2013-03-16 22:02:00,
2013-03-16 16:22:00,50.0,33.0,29.76,North,5,8.0,10.0,52,0.00,,,-99.99,,2013-03-16 22:22:00,
2013-03-16 16:32:00,51.0,34.0,29.76,NE,41,7.0,12.0,51,0.00,,,-99.99,,2013-03-16 22:32:00,
2013-03-16 16:52:00,54.0,33.0,29.76,SW,226,2.0,8.0,45,0.00,,,-99.99,,2013-03-16 22:52:00,
2013-03-16 17:12:00,55.0,34.0,29.75,SE,144,2.0,5.0,45,0.00,,,-99.99,,2013-03-16 23:12:00,
2013-03-16 17:22:00,54.0,31.0,29.74,West,260,3.0,10.0,42,0.00,,,-99.99,,2013-03-16 23:22:00,
2013-03-16 17:32:00,54.0,32.0,29.75,NNW,335,0.0,6.0,43,0.00,,,-99.99,,2013-03-16 23:32:00,
2013-03-16 17:42:00,54.0,32.0,29.75,NNW,335,0.0,6.0,43,0.00,,,-99.99,,2013-03-16 23:42:00,
2013-03-16 17:52:00,55.0,34.0,29.75,WSW,249,0.0,4.0,45,0.00,,,-99.99,,2013-03-16 23:52:00,
2013-03-16 18:01:00,55.0,31.0,29.75,ESE,106,0.0,4.0,40,0.00,,,-99.99,,2013-03-17 00:01:00,
2013-03-16 18:12:00,55.0,31.0,29.75,ESE,106,0.0,4.0,40,0.00,,,-99.99,,2013-03-17 00:12:00,
2013-03-16 18:22:00,53.0,32.0,29.75,ESE,106,2.0,4.0,45,0.00,,,-99.99,,2013-03-17 00:22:00,
2013-03-16 18:31:00,52.0,33.0,29.76,SSW,202,2.0,7.0,48,0.00,,,-99.99,,2013-03-17 00:31:00,
2013-03-16 18:42:00,52.0,33.0,29.76,SSW,202,2.0,7.0,48,0.00,,,-99.99,,2013-03-17 00:42:00,
2013-03-16 18:51:00,52.0,33.0,29.76,West,267,3.0,8.0,48,0.00,,,-99.99,,2013-03-17 00:51:00,
2013-03-16 19:01:00,52.0,30.0,29.76,SSW,193,8.0,14.0,43,0.00,,,-99.99,,2013-03-17 01:01:00,
2013-03-16 19:11:00,52.0,30.0,29.76,SSW,193,8.0,14.0,43,0.00,,,-99.99,,2013-03-17 01:11:00,
2013-03-16 19:21:00,50.0,31.0,29.76,SSW,204,4.0,8.0,47,0.00,,,-99.99,,2013-03-17 01:21:00,
2013-03-16 19:32:00,49.0,32.0,29.77,SW,224,2.0,6.0,51,0.00,,,-99.99,,2013-03-17 01:32:00,
2013-03-16 19:41:00,49.0,32.0,29.77,SW,224,2.0,6.0,51,0.00,,,-99.99,,2013-03-17 01:41:00,
2013-03-16 19:52:00,48.0,33.0,29.77,NW,314,2.0,5.0,56,0.00,,,-99.99,,2013-03-17 01:52:00,
2013-03-16 20:02:00,46.0,30.0,29.78,WNW,282,1.0,7.0,54,0.00,,,-99.99,,2013-03-17 02:02:00,
2013-03-16 20:22:00,47.0,29.0,29.78,WNW,284,5.0,8.0,50,0.00,,,-99.99,,2013-03-17 02:22:00,
2013-03-16 20:32:00,47.0,29.0,29.79,WNW,285,2.0,8.0,49,0.00,,,-99.99,,2013-03-17 02:32:00,
2013-03-16 20:42:00,47.0,29.0,29.79,WNW,285,2.0,8.0,49,0.00,,,-99.99,,2013-03-17 02:42:00,
2013-03-16 20:52:00,46.0,30.0,29.80,North,11,4.0,6.0,54,0.00,,,-99.99,,2013-03-17 02:52:00,
2013-03-16 21:02:00,45.0,31.0,29.80,WSW,240,3.0,5.0,57,0.00,,,-99.99,,2013-03-17 03:02:00,
2013-03-16 21:11:00,45.0,31.0,29.80,WSW,240,3.0,5.0,57,0.00,,,-99.99,,2013-03-17 03:11:00,
2013-03-16 21:21:00,44.0,31.0,29.80,WSW,240,1.0,3.0,59,0.00,,,-99.99,,2013-03-17 03:21:00,
2013-03-16 21:32:00,43.0,31.0,29.82,North,11,0.0,3.0,63,0.00,,,-99.99,,2013-03-17 03:32:00,
2013-03-16 21:42:00,43.0,31.0,29.82,North,11,0.0,3.0,63,0.00,,,-99.99,,2013-03-17 03:42:00,
2013-03-16 21:52:00,42.0,30.0,29.82,NE,42,0.0,4.0,63,0.00,,,-99.99,,2013-03-17 03:52:00,
2013-03-16 22:02:00,41.0,31.0,29.83,SSE,158,0.0,4.0,66,0.00,,,-99.99,,2013-03-17 04:02:00,
2013-03-16 22:22:00,41.0,31.0,29.83,SSE,158,0.0,1.0,66,0.00,,,-99.99,,2013-03-17 04:22:00,
2013-03-16 22:32:00,40.0,31.0,29.83,SSE,158,0.0,2.0,70,0.00,,,-99.99,,2013-03-17 04:32:00,
2013-03-16 22:52:00,38.0,30.0,29.84,SSE,162,1.0,5.0,73,0.00,,,-99.99,,2013-03-17 04:52:00,
2013-03-16 23:02:00,38.0,30.0,29.84,NNE,13,4.0,4.0,73,0.00,,,-99.99,,2013-03-17 05:02:00,
2013-03-16 23:21:00,37.0,29.0,29.84,NNE,13,0.0,0.0,73,0.00,,,-99.99,,2013-03-17 05:21:00,
2013-03-16 23:32:00,36.0,29.0,29.84,NNE,13,0.0,3.0,75,0.00,,,-99.99,,2013-03-17 05:32:00,
2013-03-16 23:52:00,35.0,28.0,29.84,NNE,13,0.0,2.0,75,0.00,,,-99.99,,2013-03-17 05:52:00,